KV5TX Weather Reports


Display with metric or nautical units.
time (UTC)temp
F
wind
direction
speed
MPH
gust
MPH
rain 1hr
in
rain 24hr
in
rain mn
in
humidity
%
barometer
mb
20260506235145 62 234 0.0 0.0 0.00 0.00 0.00 75 1006.0
20260506234642 62 258 0.0 0.0 0.00 0.00 0.00 75 1006.0
20260506234139 63 308 0.0 3.0 0.00 0.00 0.00 75 1005.7
20260506233636 63 274 0.0 0.0 0.00 0.00 0.00 75 1005.7
20260506233133 63 274 0.0 0.0 0.00 0.00 0.00 75 1006.0
20260506232629 63 235 0.0 0.0 0.00 0.00 0.00 75 1005.7
20260506232125 63 344 0.0 0.0 0.00 0.00 0.00 75 1005.7
20260506231622 63 338 0.0 0.0 0.00 0.00 0.00 74 1005.7
20260506231121 63 212 0.0 0.0 0.00 0.00 0.00 74 1005.7
20260506230617 63 222 0.0 0.0 0.00 0.00 0.00 74 1005.7
20260506230115 63 243 0.0 0.0 0.00 0.00 0.00 74 1005.7
20260506225611 63 268 0.0 0.0 0.00 0.00 0.00 74 1005.7
20260506225107 63 240 0.0 0.0 0.00 0.00 0.00 74 1005.7
20260506224604 63 269 0.0 0.0 0.00 0.00 0.00 74 1006.0
20260506224101 64 287 0.0 0.0 0.00 0.00 0.00 75 1005.7
20260506223556 64 258 0.0 0.0 0.00 0.00 0.00 74 1005.7
20260506223053 64 247 0.0 0.0 0.00 0.00 0.00 73 1006.0
20260506222550 64 349 0.0 0.0 0.00 0.00 0.00 73 1005.7
20260506222046 64 220 0.0 0.0 0.00 0.00 0.00 74 1005.7
20260506221544 65 259 0.0 0.0 0.00 0.00 0.00 73 1005.7
20260506221042 65 354 0.0 0.0 0.00 0.00 0.00 72 1005.2
20260506220537 65 230 0.0 0.0 0.00 0.00 0.00 72 1005.7
20260506220033 65 336 0.0 0.0 0.00 0.00 0.00 72 1005.7
20260506215530 65 238 0.0 0.0 0.00 0.00 0.00 72 1005.7
20260506215026 65 251 0.0 0.0 0.00 0.00 0.00 72 1005.7
20260506214523 65 219 0.0 0.0 0.00 0.00 0.00 71 1005.2
20260506214020 65 241 0.0 0.0 0.00 0.00 0.00 73 1005.2
20260506213518 66 233 0.0 0.0 0.00 0.00 0.00 73 1005.2
20260506213015 66 268 0.0 3.0 0.00 0.00 0.00 72 1005.2
20260506212512 66 236 0.0 0.0 0.00 0.00 0.00 72 1005.7
20260506212007 66 243 0.0 0.0 0.00 0.00 0.00 72 1005.2
20260506211503 66 226 0.0 0.0 0.00 0.00 0.00 72 1005.2
20260506211000 67 223 0.0 0.0 0.00 0.00 0.00 73 1005.7
20260506210456 67 3 0.0 3.0 0.00 0.00 0.00 72 1005.7
20260506205953 68 337 0.0 3.0 0.00 0.00 0.00 72 1005.7
20260506205449 68 289 0.0 3.0 0.00 0.00 0.00 71 1005.7
20260506204946 68 270 0.0 0.0 0.00 0.00 0.00 71 1005.7
20260506204444 68 198 0.0 3.0 0.00 0.00 0.00 71 1005.2
20260506203941 69 248 0.0 0.0 0.00 0.00 0.00 72 1005.2
20260506203438 69 340 0.0 0.0 0.00 0.00 0.00 73 1005.2
20260506202935 70 296 0.0 0.0 0.00 0.00 0.00 71 1005.7
20260506202432 70 241 0.0 0.0 0.00 0.00 0.00 71 1005.7
20260506201928 71 223 0.0 0.0 0.00 0.00 0.00 71 1005.7
20260506201426 71 221 0.0 0.0 0.00 0.00 0.00 69 1005.7
20260506200922 71 231 0.0 0.0 0.00 0.00 0.00 71 1005.2
20260506200419 71 277 0.0 0.0 0.00 0.00 0.00 71 1005.7
20260506195915 71 348 1.0 3.0 0.00 0.00 0.00 69 1005.2
20260506195413 71 321 0.0 0.0 0.00 0.00 0.00 72 1005.2
20260506194909 71 240 0.0 0.0 0.00 0.00 0.00 71 1005.2
20260506194406 71 270 0.0 0.0 0.00 0.00 0.00 71 1005.2
20260506193903 71 14 0.0 0.0 0.00 0.00 0.00 71 1005.2
20260506193400 71 317 0.0 0.0 0.00 0.00 0.00 71 1005.2
20260506192856 71 281 0.0 0.0 0.00 0.00 0.00 72 1005.2
20260506192353 72 357 1.0 3.0 0.00 0.00 0.00 73 1005.2
20260506191850 73 281 0.0 0.0 0.00 0.00 0.00 72 1005.2
20260506191347 74 331 0.0 3.0 0.00 0.00 0.00 72 1005.2
20260506190844 75 307 0.0 3.0 0.00 0.00 0.00 71 1005.7
20260506190340 76 271 0.0 0.0 0.00 0.00 0.00 72 1005.2
20260506185837 77 246 0.0 0.0 0.00 0.00 0.00 72 1005.2
20260506185334 78 242 0.0 0.0 0.00 0.00 0.00 71 1005.2
20260506184831 78 314 2.0 3.0 0.00 0.00 0.00 69 1005.2
20260506184328 79 266 0.0 0.0 0.00 0.00 0.00 67 1004.9
20260506183826 78 271 0.0 0.0 0.00 0.00 0.00 66 1004.9
20260506183320 78 210 0.0 0.0 0.00 0.00 0.00 68 1005.2
20260506182818 78 29 0.0 0.0 0.00 0.00 0.00 67 1004.9
20260506182315 78 279 0.0 0.0 0.00 0.00 0.00 68 1004.6
20260506181813 78 230 0.0 0.0 0.00 0.00 0.00 68 1004.6
20260506181310 77 245 0.0 0.0 0.00 0.00 0.00 68 1004.9
20260506180808 77 215 0.0 0.0 0.00 0.00 0.00 69 1004.9
20260506180303 77 217 0.0 0.0 0.00 0.00 0.00 69 1004.9
20260506175800 76 258 0.0 0.0 0.00 0.00 0.00 68 1004.9
20260506175257 76 216 0.0 0.0 0.00 0.00 0.00 69 1004.9
20260506174754 75 214 0.0 0.0 0.00 0.00 0.00 68 1004.9
20260506174251 74 273 0.0 0.0 0.00 0.00 0.00 68 1004.6
20260506173749 74 221 0.0 0.0 0.00 0.00 0.00 69 1004.6
20260506173245 73 256 0.0 0.0 0.00 0.00 0.00 69 1004.9
20260506172742 72 203 0.0 0.0 0.00 0.00 0.00 70 1004.9
20260506172239 72 157 0.0 0.0 0.00 0.00 0.00 71 1004.9
20260506171736 71 240 0.0 0.0 0.00 0.00 0.00 70 1004.9
20260506171233 70 254 0.0 0.0 0.00 0.00 0.00 70 1004.9
20260506170731 69 209 0.0 0.0 0.00 0.00 0.00 73 1004.9
20260506170227 69 224 0.0 0.0 0.00 0.00 0.00 72 1005.2
20260506165726 68 219 0.0 0.0 0.00 0.00 0.00 72 1004.9
20260506165222 67 241 0.0 0.0 0.00 0.00 0.00 71 1005.2
20260506164720 67 224 0.0 0.0 0.00 0.00 0.00 72 1005.2
20260506164217 66 324 0.0 0.0 0.00 0.00 0.00 72 1005.2
20260506163713 66 254 0.0 0.0 0.00 0.00 0.00 72 1005.7
20260506163208 66 130 0.0 0.0 0.00 0.00 0.00 73 1005.7
20260506162705 66 236 0.0 0.0 0.00 0.00 0.00 73 1006.0
20260506162202 66 343 0.0 3.0 0.00 0.00 0.00 72 1006.0
20260506161659 66 333 0.0 0.0 0.00 0.00 0.00 75 1006.0
20260506161156 67 252 0.0 0.0 0.00 0.00 0.00 75 1006.4
20260506160654 68 235 0.0 0.0 0.00 0.00 0.00 75 1006.4
20260506160150 69 241 0.0 0.0 0.00 0.00 0.00 75 1006.7
20260506155649 71 258 0.0 0.0 0.00 0.00 0.00 75 1006.7
20260506155146 72 245 0.0 0.0 0.00 0.00 0.00 74 1006.4
20260506153248 76 231 0.0 0.0 0.00 0.00 0.00 73 1005.2
20260506152744 77 272 0.0 0.0 0.00 0.00 0.00 72 1004.9
20260506152242 77 228 0.0 0.0 0.00 0.00 0.00 72 1004.9
20260506151741 77 225 0.0 0.0 0.00 0.00 0.00 72 1004.6
20260506151237 77 201 0.0 0.0 0.00 0.00 0.00 72 1004.6
20260506150733 77 223 0.0 0.0 0.00 0.00 0.00 71 1004.6
20260506150231 76 222 0.0 0.0 0.00 0.00 0.00 72 1004.2
20260506145728 76 224 0.0 0.0 0.00 0.00 0.00 72 1004.6
20260506145224 76 209 0.0 0.0 0.00 0.00 0.00 71 1004.2
20260506144722 76 204 0.0 0.0 0.00 0.00 0.00 71 1003.9
20260506144219 76 189 0.0 0.0 0.00 0.00 0.00 71 1003.9
20260506143716 75 235 0.0 0.0 0.00 0.00 0.00 71 1003.9
20260506143214 75 246 0.0 3.0 0.00 0.00 0.00 71 1003.9
20260506142712 75 221 0.0 0.0 0.00 0.00 0.00 72 1003.9
20260506142210 75 229 0.0 0.0 0.00 0.00 0.00 72 1003.5
20260506141707 74 216 0.0 0.0 0.00 0.00 0.00 73 1003.2
20260506141205 74 222 0.0 0.0 0.00 0.00 0.00 74 1003.2
20260506140703 74 213 0.0 0.0 0.00 0.00 0.00 74 1003.5
20260506140159 74 197 0.0 0.0 0.00 0.00 0.00 74 1003.5
20260506135656 74 228 0.0 0.0 0.00 0.00 0.00 74 1003.9
20260506135153 74 225 0.0 0.0 0.00 0.00 0.00 74 1003.9
20260506134649 74 224 0.0 0.0 0.00 0.00 0.00 74 1003.5
20260506134145 74 224 0.0 0.0 0.00 0.00 0.00 74 1003.2
20260506133643 74 239 0.0 0.0 0.00 0.00 0.00 74 1002.9
20260506133139 74 228 0.0 0.0 0.00 0.00 0.00 74 1003.2
20260506132637 74 231 0.0 0.0 0.00 0.00 0.00 74 1002.9
20260506132133 74 229 0.0 0.0 0.00 0.00 0.00 74 1002.9
20260506131631 74 232 0.0 0.0 0.00 0.00 0.00 74 1002.9
20260506131127 74 197 0.0 0.0 0.00 0.00 0.00 74 1002.9
20260506130624 74 238 0.0 0.0 0.00 0.00 0.00 74 1002.5
20260506130122 73 218 0.0 0.0 0.00 0.00 0.00 74 1002.9
20260506125620 73 217 0.0 0.0 0.00 0.00 0.00 75 1002.5
20260506125117 73 240 0.0 0.0 0.00 0.00 0.00 75 1002.5
20260506124615 73 221 0.0 0.0 0.00 0.00 0.00 75 1002.5
20260506124113 73 187 0.0 0.0 0.00 0.00 0.00 75 1002.5
20260506123610 73 218 0.0 0.0 0.00 0.00 0.00 75 1002.9
20260506123108 73 218 0.0 0.0 0.00 0.00 0.00 75 1002.9
20260506122604 73 222 0.0 0.0 0.00 0.00 0.00 75 1002.5
20260506122103 73 216 0.0 0.0 0.00 0.00 0.00 75 1002.5
20260506121600 73 219 0.0 0.0 0.00 0.00 0.00 75 1002.5
20260506121056 73 217 0.0 0.0 0.00 0.00 0.00 75 1002.5
20260506120554 74 218 0.0 0.0 0.00 0.00 0.00 75 1002.5
20260506120051 74 218 0.0 0.0 0.00 0.00 0.00 74 1002.5
20260506115549 74 218 0.0 0.0 0.00 0.00 0.00 74 1002.5
20260506115048 74 218 0.0 0.0 0.00 0.00 0.00 74 1002.1
20260506114544 74 217 0.0 0.0 0.00 0.00 0.00 74 1002.5
20260506114043 74 230 0.0 0.0 0.00 0.00 0.00 74 1002.1
20260506113540 74 221 0.0 0.0 0.00 0.00 0.00 74 1002.1
20260506113037 74 221 0.0 0.0 0.00 0.00 0.00 74 1002.1
20260506112534 74 221 0.0 0.0 0.00 0.00 0.00 74 1002.5
20260506112031 74 221 0.0 0.0 0.00 0.00 0.00 74 1002.1
20260506111529 74 221 0.0 0.0 0.00 0.00 0.00 74 1002.5
20260506111026 74 221 0.0 0.0 0.00 0.00 0.00 74 1002.5
20260506110524 74 221 0.0 0.0 0.00 0.00 0.00 74 1002.1
20260506110021 74 216 0.0 0.0 0.00 0.00 0.00 74 1002.1
20260506105517 74 216 0.0 0.0 0.00 0.00 0.00 74 1002.1
20260506105014 74 216 0.0 0.0 0.00 0.00 0.00 74 1002.1
20260506104512 74 208 0.0 0.0 0.00 0.00 0.00 74 1002.1
20260506104010 74 200 0.0 0.0 0.00 0.00 0.00 74 1001.8
20260506103507 74 215 0.0 0.0 0.00 0.00 0.00 74 1002.1
20260506103003 74 224 0.0 0.0 0.00 0.00 0.00 74 1001.8
20260506102502 74 228 0.0 0.0 0.00 0.00 0.00 74 1001.8
20260506101959 74 217 0.0 0.0 0.00 0.00 0.00 74 1001.8
20260506101455 74 227 0.0 0.0 0.00 0.00 0.00 74 1001.8
20260506100953 73 212 0.0 0.0 0.00 0.00 0.00 74 1001.8
20260506100451 73 178 0.0 0.0 0.00 0.00 0.00 74 1001.8
20260506095949 73 204 0.0 3.0 0.00 0.00 0.00 74 1001.4
20260506095447 73 169 0.0 0.0 0.00 0.00 0.00 74 1001.4
20260506094942 73 197 0.0 0.0 0.00 0.00 0.00 74 1001.4
20260506094441 73 266 0.0 0.0 0.00 0.00 0.00 74 1001.4
20260506093938 73 220 0.0 0.0 0.00 0.00 0.00 75 1001.4
20260506093437 74 215 0.0 0.0 0.00 0.00 0.00 75 1001.4
20260506092934 74 147 1.0 3.0 0.00 0.00 0.00 75 1001.4
20260506092432 74 216 0.0 0.0 0.00 0.00 0.00 75 1001.1
20260506091928 74 170 0.0 3.0 0.00 0.00 0.00 75 1001.1
20260506091426 74 218 0.0 0.0 0.00 0.00 0.00 75 1001.1
20260506090923 74 232 0.0 0.0 0.00 0.00 0.00 75 1001.1
20260506090421 74 214 0.0 0.0 0.00 0.00 0.00 75 1001.1
20260506085917 74 205 0.0 3.0 0.00 0.00 0.00 75 1000.7
20260506085414 74 217 0.0 0.0 0.00 0.00 0.00 75 1000.7
20260506084910 74 239 0.0 0.0 0.00 0.00 0.00 75 1000.7
20260506084407 74 194 0.0 0.0 0.00 0.00 0.00 75 1001.1
20260506083903 74 232 0.0 0.0 0.00 0.00 0.00 75 1000.7
20260506083401 74 180 1.0 3.0 0.00 0.00 0.00 75 1001.1
20260506082858 74 143 3.0 5.0 0.00 0.00 0.00 75 1000.7
20260506082355 74 196 0.0 0.0 0.00 0.00 0.00 75 1001.1
20260506081851 74 161 3.0 5.0 0.00 0.00 0.00 75 1001.1
20260506081349 74 186 0.0 0.0 0.00 0.00 0.00 75 1001.1
20260506080846 74 245 0.0 0.0 0.00 0.00 0.00 75 1001.1
20260506080343 74 240 0.0 0.0 0.00 0.00 0.00 75 1001.1
20260506073327 75 153 1.0 5.0 0.00 0.00 0.00 75 1001.4
20260506072824 75 182 1.0 3.0 0.00 0.00 0.00 74 1001.4
20260506072321 75 221 0.0 0.0 0.00 0.00 0.00 74 1001.8
20260506071819 75 228 0.0 3.0 0.00 0.00 0.00 74 1001.4
20260506071317 75 211 0.0 0.0 0.00 0.00 0.00 74 1001.8
20260506070814 75 218 0.0 3.0 0.00 0.00 0.00 74 1001.8
20260506070311 75 124 0.0 3.0 0.00 0.00 0.00 74 1001.8
20260506062248 75 212 5.0 10.0 0.00 0.00 0.00 75 1001.4
20260506061744 75 229 0.0 0.0 0.00 0.00 0.00 75 1001.8
20260506061241 75 162 0.0 0.0 0.00 0.00 0.00 75 1001.8
20260506060739 75 200 0.0 0.0 0.00 0.00 0.00 75 1001.4
20260506060237 75 217 0.0 0.0 0.00 0.00 0.00 75 1001.8
20260506051208 75 251 0.0 0.0 0.00 0.00 0.00 74 1001.4
20260506050707 75 220 0.0 0.0 0.00 0.00 0.00 74 1001.8
20260506050203 75 165 2.0 5.0 0.00 0.00 0.00 74 1001.4
20260506044654 75 179 0.0 0.0 0.00 0.00 0.00 75 1001.8
20260506044151 75 191 0.0 0.0 0.00 0.00 0.00 75 1001.8
20260506043648 75 206 0.0 0.0 0.00 0.00 0.00 75 1001.8
20260506043146 75 234 0.0 0.0 0.00 0.00 0.00 75 1001.8
20260506042645 75 212 1.0 5.0 0.00 0.00 0.00 75 1001.8
20260506042143 75 194 0.0 0.0 0.00 0.00 0.00 75 1001.4
20260506041641 75 189 2.0 3.0 0.00 0.00 0.00 75 1001.4
20260506041137 75 209 1.0 5.0 0.00 0.00 0.00 75 1001.4
20260506040635 75 207 0.0 0.0 0.00 0.00 0.00 75 1001.4
20260506040132 75 220 0.0 0.0 0.00 0.00 0.00 75 1001.4
20260506035629 75 226 0.0 0.0 0.00 0.00 0.00 75 1001.4
20260506035125 75 204 0.0 0.0 0.00 0.00 0.00 75 1001.1
20260506034623 76 219 0.0 0.0 0.00 0.00 0.00 76 1001.1
20260506034120 76 197 1.0 3.0 0.00 0.00 0.00 76 1001.1
20260506033617 76 214 0.0 0.0 0.00 0.00 0.00 76 1001.1
20260506033114 76 187 0.0 0.0 0.00 0.00 0.00 76 1001.1
20260506032611 76 270 0.0 0.0 0.00 0.00 0.00 76 1001.1
20260506032108 76 188 0.0 3.0 0.00 0.00 0.00 76 1001.1
20260506031605 76 256 0.0 0.0 0.00 0.00 0.00 77 1000.7
20260506031102 76 196 1.0 3.0 0.00 0.00 0.00 77 1000.7
20260506030600 76 208 0.0 0.0 0.00 0.00 0.00 76 1000.7
20260506030057 76 186 0.0 0.0 0.00 0.00 0.00 77 1000.7
20260506025554 77 210 0.0 0.0 0.00 0.00 0.00 76 1000.7
20260506025050 77 168 0.0 3.0 0.00 0.00 0.00 76 1000.7
20260506024547 77 227 0.0 0.0 0.00 0.00 0.00 76 1000.7
20260506024044 77 223 0.0 0.0 0.00 0.00 0.00 76 1000.7
20260506023539 77 197 0.0 0.0 0.00 0.00 0.00 76 1000.4
20260506023037 77 229 0.0 0.0 0.00 0.00 0.00 76 1000.1
20260506022535 77 177 0.0 3.0 0.00 0.00 0.00 76 1000.1
20260506022032 77 218 0.0 0.0 0.00 0.00 0.00 76 1000.1
20260506021529 77 228 0.0 0.0 0.00 0.00 0.00 76 1000.1
20260506021027 77 206 0.0 0.0 0.00 0.00 0.00 76 1000.1
20260506020524 77 219 0.0 0.0 0.00 0.00 0.00 75 999.7
20260506020021 78 219 0.0 0.0 0.00 0.00 0.00 75 999.7
20260506015519 78 205 0.0 0.0 0.00 0.00 0.00 75 999.7
20260506015015 78 215 0.0 0.0 0.00 0.00 0.00 75 999.7
20260506014513 78 182 0.0 0.0 0.00 0.00 0.00 75 999.7
20260506014009 78 209 0.0 0.0 0.00 0.00 0.00 75 999.4
20260506013507 79 227 0.0 0.0 0.00 0.00 0.00 74 999.4
20260506013003 79 218 0.0 0.0 0.00 0.00 0.00 74 999.7
20260506012459 79 233 0.0 0.0 0.00 0.00 0.00 73 999.4
20260506011956 80 217 0.0 0.0 0.00 0.00 0.00 73 999.4
20260506011454 80 217 0.0 0.0 0.00 0.00 0.00 72 999.4
20260506010950 80 191 0.0 0.0 0.00 0.00 0.00 72 999.7
20260506010449 80 218 0.0 0.0 0.00 0.00 0.00 72 999.7
20260506005945 81 211 0.0 0.0 0.00 0.00 0.00 71 999.7
20260506005443 81 181 0.0 0.0 0.00 0.00 0.00 71 999.7
20260506004938 81 184 0.0 0.0 0.00 0.00 0.00 70 999.7
20260506004437 81 218 0.0 0.0 0.00 0.00 0.00 70 999.7
20260506003932 81 218 0.0 0.0 0.00 0.00 0.00 69 999.7
20260506003429 82 225 0.0 0.0 0.00 0.00 0.00 69 999.7
20260506002925 82 184 0.0 0.0 0.00 0.00 0.00 69 1000.1
20260506002421 82 211 0.0 0.0 0.00 0.00 0.00 68 999.7
20260506001917 82 192 1.0 3.0 0.00 0.00 0.00 68 999.4
20260506001414 82 166 0.0 3.0 0.00 0.00 0.00 67 999.7
20260506000911 82 204 0.0 0.0 0.00 0.00 0.00 67 999.7
20260506000409 82 221 0.0 0.0 0.00 0.00 0.00 67 999.7
20260505235905 82 225 0.0 0.0 0.00 0.00 0.00 67 999.4
20260505235404 82 229 0.0 0.0 0.00 0.00 0.00 67 999.7